Regional Weather Roundup
Issued by NWS Charleston, WV

Home | Current Version | Previous Version | Text Only | Print | Product List | Glossary Off
Versions: 1 2 3 4 5 6 7 8 9 10 11 12 13 14 15 16 17 18 19 20 21 22 23 24 25 26 27 28 29 30 31 32 33 34 35 36 37 38 39 40 41 42 43 44 45 46 47 48 49 50

163
ASUS41 KRLX 251610
RWRRLX
West Virginia Regional Weather Roundup
National Weather Service Charleston WV
1200 PM EDT SUN JUN 25 2017

Note: "fair" indicates few or no clouds below 12,000 feet with no
significant weather and/or obstructions to visibility.

WVZ003-251700-
Northern Panhandle of West Virginia

CITY           SKY/WX    TMP DP  RH WIND       PRES   REMARKS
WHEELING       MOSUNNY   71  48  43 W12       30.11R
$$

WVZ009-251700-
Northwest West Virginia

CITY           SKY/WX    TMP DP  RH WIND       PRES   REMARKS
PARKERSBURG    SUNNY     73  49  42 W9        30.17S
$$

WVZ006-251700-
Western West Virginia

CITY           SKY/WX    TMP DP  RH WIND       PRES   REMARKS
HUNTINGTON     SUNNY     74  49  41 SW9       30.18S
$$

WVZ015-251700-
West Central West Virginia

CITY           SKY/WX    TMP DP  RH WIND       PRES   REMARKS
CHARLESTON     MOSUNNY   73  47  39 W10G16    30.18S
$$

WVZ022-031-251700-
North Central West Virginia

CITY           SKY/WX    TMP DP  RH WIND       PRES   REMARKS
CLARKSBURG     MOSUNNY   72  48  42 W10G20    30.13S
MORGANTOWN     MOSUNNY   72  46  39 SW10      30.13R
$$

WVZ025-035-042-045-251700-
Southern West Virginia

CITY           SKY/WX    TMP DP  RH WIND       PRES   REMARKS
BECKLEY        MOSUNNY   69  49  48 N12G17    30.22R
LOGAN            N/A     72  52  49 NW7       30.21S
BLUEFIELD      MOSUNNY   65  50  58 W12G20    30.23S
LEWISBURG      SUNNY     68  48  48 NW8G18    30.19S
$$

WVZ047-251700-
Northern Mountains of West Virginia

CITY           SKY/WX    TMP DP  RH WIND       PRES   REMARKS
ELKINS         PTSUNNY   70  48  45 W10G23    30.17R
$$

WVZ052-251700-
Eastern Panhandle of West Virginia

CITY           SKY/WX    TMP DP  RH WIND       PRES   REMARKS
MARTINSBURG    MOSUNNY   78  51  38 W14       30.05S
PETERSBURG     MOSUNNY   78  54  43 W9        30.10F
$$




USA.gov is the U.S. government's official web portal to all federal, state and local government web resources and services.